Погода в Ужгороде

Погода в Ужгороде : погода сейчас, прогноз погоды и архив. Всё, что Вы хотите узнать о погоде в Ужгороде!

Поиск расширенной информации на нашем сайте:

Полезная информация:

Другие новости

Новости СМИ2

Главная страница сайта

Новости сайта

03.07.2017

Напоминаем, что на нашем специализированном сайте Метеоцентр.Азия вы можете получить высокодетализированные автоматические прогнозы погоды по пунктам России, СНГ и мира в авиационном формате (включающие направление и скорость ветра, видимость, явления погоды, количество и форму облачности, нижнюю и верхнюю границу облачности).

Рекомендуем:

Погода в Ужгороде - сегодня

Время (UTC), дата Ветер
(°,м/с) 
Видим.   Явления Облачность Т
(°С)
Тd
(°С)
f(%) Тe
(°С)
Pmin
(гПа)
dP
(гПа)
Po
(мм)
O2
(г/м3)
Тmin Tmax R s Состояние
почвы
03 16.07.19 тихо ()   20000 м    ясно 
+9.7 +7.8 88 +10  1013.2  -0.3  749  290           
06 16.07.19 280 (З) 20000 м    ясно 
+16.3 +12.1 76 +22  1013.1  0.3  749  283  +9.1         
09 16.07.19 250 (З) 10 км    3/3 1000 м 
[Cu med, cong]
+22.9 +11.3 48 +26  1012.3  -0.6  749  276           
12 16.07.19 300 (СЗ) 10 км    5/5 1000 м 
[Cu med, cong]
+24.9 +7.6 33 +25  1011.1  -1  748  275           
15 16.07.19 200 (Ю) 10 км    5/3 1000 м верхняя 
[Cu med, cong|Ci fib]
+26.1 +7.6 31 +26  1009.7  -1.2  747  274           
18 16.07.19 170 (Ю) 20000 м    6/6 1380 м 
[Sc]
+23.5 +8.8 39 +24  1009.1  -0.8  747  276    +26.4       
21 16.07.19 330 (СЗ) 10 км    4/0 средняя 
[Ac trans]
+20.8 +10.3 51 +22  1009.9  0.7  747  278           
00 17.07.19 350 (С) 10 км    3/0 верхняя 
[Ci fib]
+18 +7.8 51 +19  1010.9  0.9  748  281           
03 17.07.19 340 (С) 10 км    4/3 1500 м средняя 
[Sc|Ac trans]
+16.7 +7.3 54 +17  1010.9  -0.1  748  283           
06 17.07.19 340 (С) 10 км    ясно 
+18.8 +8.4 51 +19  1011.2  0.4  748  281  +14.8         
09 17.07.19 320 (СЗ) 20000 м    5/3 1500 м верхняя 
[Cu hum|Ci fib]
+21.1 +8.4 44 +21  1010.9  -0.2  748  278           
12 17.07.19 320 (СЗ) 20000 м    6/4 1500 м средняя 
[Cu med, cong|Ac trans]
+23.3 +8.5 39 +23  1010.7  -0.1  748  276           
15 17.07.19 340 (С) 20000 м    4/3 1500 м верхняя 
[Cu hum|Ci fib]
+23.7 +7.3 35 +24  1010.4  -0.3  748  276           
18 17.07.19 360 (С) 20000 м    6/6 1500 м 
[Cu hum]
+21.6 +8.5 43 +22  1011.3  0.7  748  278    +24.6       
21 17.07.19 тихо ()   10 км    5/3 1000 м средняя 
[Sc|Ac trans]
+15.3 +11.4 78 +18  1012.5  0.9  749  284           
00 18.07.19 тихо ()   20000 м    8/3 1500 м 
[Sc]
+13 +10.3 84 +15  1013  0.4  749  286           
03 18.07.19 тихо ()   20000 м    8/3 1500 м верхняя 
[Sc|Ci fib]
+10.5 +8.9 90 +11  1013.3  0.2  749  289           
06 18.07.19 тихо ()   20000 м    8/0 средняя 
[Ac trans]
+17.5 +11 66 +20  1013.7  0.7  750  282  +10.2         
09 18.07.19 230 (ЮЗ) 20000 м    8/3 1000 м верхняя 
[Cu hum|Ci fib]
+21.8 +8.6 43 +22  1013.6  0.1  750  278           
12 18.07.19 270 (З) 20000 м    6/4 1000 м средняя 
[Cu hum|Ac trans]
+23.7 +9.3 40 +24  1013.2  -0.2  750  276           
15 18.07.19 270 (З) 20000 м    8/3 1000 м средняя 
[Cu hum|Ac trans]
+25.8 +9.7 36 +27  1012.9  -0.2  750  274           
18 18.07.19 тихо ()   20000 м    8/4 1500 м верхняя 
[Sc|Ci fib]
+21.6 +16.4 72 +33  1013.3  0.2  750  276    +26       
21 18.07.19 тихо ()   10 км    8/0 средняя 
[Ac trans]
+17.2 +12.9 76 +22  1014  750  282           
00 19.07.19 тихо ()   10 км    4/0 средняя 
[Ac trans]
+13.2 +8.8 75 +13  1015.5  0.7  751  287           
03 19.07.19 тихо ()   20000 м    3/0 средняя 
[Ac trans]
+11.5 +9.7 89 +12  1016.3  0.7  752  289           
Время (UTC), дата Ветер
(°,м/с) 
Видим.   Явления Облачность Т
(°С)
Тd
(°С)
f(%) Тe
(°С)
Pmin
(гПа)
dP
(гПа)
Po
(мм)
O2
(г/м3)
Тmin Tmax R s Состояние
почвы

Для получения пояснительной информации подведите курсор к названию столбца.

ПОГОДА в Ужгороде - архив

Всё, что Вы хотите узнать о погоде в Ужгороде - удобно и подробно!

Выберите нужную дату (начиная с 1 января 2018* года) и нажмите кнопку "Найти".
Будут отображены архивные сводки погоды по пункту Ужгород, начиная с указанной даты.


Отображать данные в формате CSV (для использования в таблицах Excel)


Внимание! Наш архив погоды предназначен исключительно для личного некоммерческого использования в познавательных целях. Если Вам необходимы официальные справки о состоянии погоды (для производственных, юридических, коммерческих и т.п. целей), обращайтесь в органы Росгидромета.

*Примечание: данная дата относится к архиву по метеостанциям СССР (Россия, СНГ, Балтия).
Архив по метеостанциям Зарубежной Европы и Азии (кроме Китая) хранится 10 дней, по другим регионам земного шара (Китай, Африка, Америка, Австралия, Океания) - 1 день.

Ужгород - район местоположения метеостанции


Название, широта, долгота, высота метеостанции:
Ужгород 48.6°ш. 22.3°д. 124 м над ур. моря [Украина]

Дополнительная информация

В oтличие oт бoльшинства пoгoдных сайтoв мы публикуем пoдрoбную метеoинфoрмацию в детальнoм прoфессиoнальнoм фoрмате.

Характеристики температуры и влажнoсти вoздуха измеряются на высoте 2 м в тени вдали oт зданий и деревьев.
Скoрoсть ветра измеряется на высoте 10 м (на урoвне рoста челoвека скoрoсть ветра ниже в 1.5-2 раза). Если метеoстанция нахoдится в гoрoде или в лесу, тo скoрoсть ветра занижена на 2-4 м/с пo сравнению с oткрытым местoм. Скoрoсть ветра над акватoриями крупных рек и oзёр, а также на вершинах хoлмoв на 2-5 м/с выше, чем в oбычных услoвиях.
Атмoсфернoе давление в разных тoчках местнoсти мoжет значительнo oтличаться oт давления на метеoстанции, в зависимoсти oт услoвий рельефа (при пoдъёме на 10 м давление пoнижается примернo на 1 мм рт.ст.).